H1 CPF 2 NER 2022 4 14 9 104 01 glonass107 H2 0706501 9107 32393 2022 4 14 0 0 0 2022 4 17 23 45 0 900 1 1 0 0 0 1 H9 10 0 59683 0.00000 0 14604787.324 18778123.013 9185515.533 10 0 59683 900.00000 0 13669629.434 17850664.455 12028270.853 10 0 59683 1800.00000 0 12396937.180 16797521.157 14637114.129 10 0 59683 2700.00000 0 10793387.391 15678541.928 16961263.206 10 0 59683 3600.00000 0 8878512.960 14552867.796 18955465.920 10 0 59683 4500.00000 0 6684145.822 13476379.843 20580886.709 10 0 59683 5400.00000 0 4253346.693 12499302.722 21805867.601 10 0 59683 6300.00000 0 1638865.060 11664065.259 22606548.520 10 0 59683 7200.00000 0 -1098807.167 11003508.602 22967334.643 10 0 59683 8100.00000 0 -3893707.914 10539517.534 22881201.705 10 0 59683 9000.00000 0 -6676908.980 10282132.581 22349833.292 10 0 59683 9900.00000 0 -9379147.822 10229180.124 21383587.447 10 0 59683 10800.00000 0 -11933477.819 10366435.770 20001293.299 10 0 59683 11700.00000 0 -14277826.915 10668313.597 18229881.677 10 0 59683 12600.00000 0 -16357358.213 11099051.616 16103856.993 10 0 59683 13500.00000 0 -18126534.565 11614342.736 13664620.784 10 0 59683 14400.00000 0 -19550801.541 12163341.609 10959660.270 10 0 59683 15300.00000 0 -20607819.204 12690961.763 8041618.094 10 0 59683 16200.00000 0 -21288192.203 13140365.141 4967261.794 10 0 59683 17100.00000 0 -21595668.882 13455538.018 1796373.568 10 0 59683 18000.00000 0 -21546802.460 13583843.672 -1409417.342 10 0 59683 18900.00000 0 -21170090.119 13478443.318 -4587836.347 10 0 59683 19800.00000 0 -20504627.760 13100482.526 -7677175.383 10 0 59683 20700.00000 0 -19598338.471 12420950.490 -10617490.890 10 0 59683 21600.00000 0 -18505850.499 11422133.515 -13351764.528 10 0 59683 22500.00000 0 -17286114.903 10098601.311 -15827004.186 10 0 59683 23400.00000 0 -15999863.590 8457684.496 -17995264.264 10 0 59683 24300.00000 0 -14707014.665 6519422.988 -19814566.198 10 0 59683 25200.00000 0 -13464133.670 4315987.014 -21249702.291 10 0 59683 26100.00000 0 -12322056.598 1890594.315 -22272908.298 10 0 59683 27000.00000 0 -11323773.330 -704032.185 -22864392.831 10 0 59683 27900.00000 0 -10502659.094 -3407603.247 -23012714.313 10 0 59683 28800.00000 0 -9881126.914 -6154519.383 -22714998.900 10 0 59683 29700.00000 0 -9469756.477 -8876352.034 -21976995.610 10 0 59683 30600.00000 0 -9266935.157 -11504448.481 -20812967.660 10 0 59683 31500.00000 0 -9259025.778 -13972553.886 -19245421.824 10 0 59683 32400.00000 0 -9421053.941 -16219343.107 -17304680.413 10 0 59683 33300.00000 0 -9717886.208 -18190758.312 -15028303.236 10 0 59683 34200.00000 0 -10105850.011 -19842056.057 -12460369.735 10 0 59683 35100.00000 0 -10534727.606 -21139479.200 -9650634.075 10 0 59683 36000.00000 0 -10950040.541 -22061484.227 -6653568.560 10 0 59683 36900.00000 0 -11295528.612 -22599472.726 -3527313.149 10 0 59683 37800.00000 0 -11515718.740 -22757996.268 -332550.918 10 0 59683 38700.00000 0 -11558474.963 -22554425.887 2868668.993 10 0 59683 39600.00000 0 -11377421.181 -22018099.765 6014137.924 10 0 59683 40500.00000 0 -10934133.226 -21188984.786 9042699.974 10 0 59683 41400.00000 0 -10200006.326 -20115908.188 11895445.969 10 0 59683 42300.00000 0 -9157717.522 -18854433.850 14516865.143 10 0 59683 43200.00000 0 -7802219.625 -17464472.839 16855931.517 10 0 59683 44100.00000 0 -6141222.963 -16007729.138 18867103.230 10 0 59683 45000.00000 0 -4195142.927 -14545088.521 20511214.759 10 0 59683 45900.00000 0 -1996513.808 -13134060.801 21756244.352 10 0 59683 46800.00000 0 411108.036 -11826383.389 22577941.437 10 0 59683 47700.00000 0 2974706.977 -10665887.159 22960301.648 10 0 59683 48600.00000 0 5633772.623 -9686714.382 22895880.177 10 0 59683 49500.00000 0 8322584.838 -8911963.472 22385937.330 10 0 59683 50400.00000 0 10972724.407 -8352817.206 21440413.476 10 0 59683 51300.00000 0 13515705.126 -8008190.529 20077733.896 10 0 59683 52200.00000 0 15885617.822 -7864911.996 18324447.344 10 0 59683 53100.00000 0 18021676.189 -7898430.397 16214705.432 10 0 59683 54000.00000 0 19870558.478 -8074015.732 13789593.087 10 0 59683 54900.00000 0 21388447.576 -8348402.816 11096323.293 10 0 59683 55800.00000 0 22542684.628 -8671807.012 8187312.157 10 0 59683 56700.00000 0 23312967.711 -8990225.809 5119152.752 10 0 59683 57600.00000 0 23692046.275 -9247927.899 1951508.212 10 0 59683 58500.00000 0 23685883.332 -9390023.519 -1254053.663 10 0 59683 59400.00000 0 23313279.895 -9365006.581 -4435261.006 10 0 59683 60300.00000 0 22604978.843 -9127160.376 -7530349.827 10 0 59683 61200.00000 0 21602287.209 -8638724.795 -10479263.230 10 0 59683 62100.00000 0 20355276.030 -7871733.185 -13224814.456 10 0 59683 63000.00000 0 18920634.349 -6809441.163 -15713791.305 10 0 59683 63900.00000 0 17359268.110 -5447287.066 -17897980.800 10 0 59683 64800.00000 0 15733744.937 -3793343.415 -19735094.976 10 0 59683 65700.00000 0 14105691.668 -1868240.059 -21189580.740 10 0 59683 66600.00000 0 12533253.107 295438.318 -22233299.125 10 0 59683 67500.00000 0 11068717.350 2654255.999 -22846061.888 10 0 59683 68400.00000 0 9756405.852 5155486.446 -23016016.022 10 0 59683 69300.00000 0 8630915.137 7739065.228 -22739869.511 10 0 59683 70200.00000 0 7715782.419 10339855.979 -22022954.399 10 0 59683 71100.00000 0 7022629.731 12890136.883 -20879126.056 10 0 59683 72000.00000 0 6550821.551 15322205.910 -19330500.307 10 0 59683 72900.00000 0 6287649.611 17570998.056 -17407032.892 10 0 59683 73800.00000 0 6209036.862 19576607.076 -15145948.475 10 0 59683 74700.00000 0 6280731.013 21286607.661 -12591029.261 10 0 59683 75600.00000 0 6459937.620 22658081.958 -9791775.889 10 0 59683 76500.00000 0 6697324.193 23659266.167 -6802455.826 10 0 59683 77400.00000 0 6939311.057 24270748.326 -3681056.972 10 0 59683 78300.00000 0 7130552.282 24486166.924 -488166.197 10 0 59683 79200.00000 0 7216501.696 24312380.612 2714205.691 10 0 59683 80100.00000 0 7145954.988 23769101.410 5863829.604 10 0 59683 81000.00000 0 6873459.556 22888006.380 8899470.716 10 0 59683 81900.00000 0 6361489.062 21711364.720 11762083.850 10 0 59683 82800.00000 0 5582289.342 20290237.842 14395967.724 10 0 59683 83700.00000 0 4519316.109 18682328.062 16749854.987 10 0 59683 84600.00000 0 3168201.992 16949566.461 18777916.216 10 0 59683 85500.00000 0 1537210.445 15155541.537 20440657.743 10 0 59684 0.00000 0 -352844.177 13362877.069 21705695.395 10 0 59684 900.00000 0 -2469209.691 11630668.566 22548389.403 10 0 59684 1800.00000 0 -4768315.421 10012088.485 22952326.376 10 0 59684 2700.00000 0 -7197355.517 8552257.434 22909641.141 10 0 59684 3600.00000 0 -9696268.558 7286472.895 22421170.414 10 0 59684 4500.00000 0 -12200032.346 6238868.410 21496436.043 10 0 59684 5400.00000 0 -14641178.407 5421558.998 20153458.082 10 0 59684 6300.00000 0 -16952421.567 4834307.808 18418401.297 10 0 59684 7200.00000 0 -19069294.891 4464726.991 16325062.109 10 0 59684 8100.00000 0 -20932680.063 4289003.079 13914206.041 10 0 59684 9000.00000 0 -22491127.603 4273114.987 11232768.729 10 0 59684 9900.00000 0 -23702869.972 4374491.894 8332936.443 10 0 59684 10800.00000 0 -24537443.725 4544039.618 5271124.405 10 0 59684 11700.00000 0 -24976853.241 4728448.505 2106873.313 10 0 59684 12600.00000 0 -25016227.999 4872684.092 -1098313.732 10 0 59684 13500.00000 0 -24663946.770 4922554.091 -4282170.707 10 0 59684 14400.00000 0 -23941224.628 4827242.307 -7382880.633 10 0 59684 15300.00000 0 -22881181.252 4541701.684 -10340275.988 10 0 59684 16200.00000 0 -21527430.777 4028804.957 -13097004.064 10 0 59684 17100.00000 0 -19932253.301 3261161.824 -15599634.743 10 0 59684 18000.00000 0 -18154425.409 2222525.900 -17799689.494 10 0 59684 18900.00000 0 -16256800.967 908732.069 -19654572.351 10 0 59684 19800.00000 0 -14303743.300 -671875.448 -21128385.758 10 0 59684 20700.00000 0 -12358515.705 -2498542.593 -22192616.440 10 0 59684 21600.00000 0 -10480738.391 -4538729.126 -22826679.181 10 0 59684 22500.00000 0 -8724016.815 -6749231.303 -23018308.921 10 0 59684 23400.00000 0 -7133839.066 -9077757.937 -22763794.361 10 0 59684 24300.00000 0 -5745828.523 -11464895.623 -22068049.033 10 0 59684 25200.00000 0 -4584423.349 -13846382.944 -20944518.556 10 0 59684 26100.00000 0 -3662036.766 -16155600.546 -19414925.601 10 0 59684 27000.00000 0 -2978732.225 -18326175.048 -17508856.905 10 0 59684 27900.00000 0 -2522426.377 -20294589.734 -15263199.408 10 0 59684 28800.00000 0 -2269610.969 -22002694.227 -12721435.428 10 0 59684 29700.00000 0 -2186563.171 -23400009.188 -9932809.421 10 0 59684 30600.00000 0 -2230993.393 -24445730.139 -6951381.424 10 0 59684 31500.00000 0 -2354061.276 -25110346.460 -3834984.788 10 0 59684 32400.00000 0 -2502674.738 -25376807.492 -644107.823 10 0 59684 33300.00000 0 -2621974.802 -25241186.224 2559279.222 10 0 59684 34200.00000 0 -2657900.781 -24712812.005 5712928.924 10 0 59684 35100.00000 0 -2559726.604 -23813865.987 8755529.508 10 0 59684 36000.00000 0 -2282460.037 -22578455.624 11627901.651 10 0 59684 36900.00000 0 -1789002.076 -21051206.609 14274155.283 10 0 59684 37800.00000 0 -1051973.821 -19285431.063 16642783.238 10 0 59684 38700.00000 0 -55132.017 -17340948.717 18687669.886 10 0 59684 39600.00000 0 1205688.060 -15281652.562 20368994.512 10 0 59684 40500.00000 0 2722143.801 -13172921.165 21654011.509 10 0 59684 41400.00000 0 4473490.225 -11078986.188 22517691.938 10 0 59684 42300.00000 0 6427215.681 -9060365.547 22943213.780 10 0 59684 43200.00000 0 8540182.986 -7171469.624 22922291.312 10 0 59684 44100.00000 0 10760229.222 -5458480.525 22455337.157 10 0 59684 45000.00000 0 13028158.019 -3957592.817 21551453.876 10 0 59684 45900.00000 0 15280041.563 -2693688.744 20228255.266 10 0 59684 46800.00000 0 17449736.425 -1679502.513 18511520.877 10 0 59684 47700.00000 0 19471508.122 -915307.626 16434690.507 10 0 59684 48600.00000 0 21282654.653 -389139.039 14038208.647 10 0 59684 49500.00000 0 22826019.220 -77539.255 11368731.769 10 0 59684 50400.00000 0 24052286.845 53204.556 8478214.282 10 0 59684 51300.00000 0 24921968.705 45386.293 5422891.332 10 0 59684 52200.00000 0 25406991.246 -52158.271 2262178.770 10 0 59684 53100.00000 0 25491823.740 -186367.988 -942487.565 10 0 59684 54000.00000 0 25174097.602 -302450.873 -4128850.124 10 0 59684 54900.00000 0 24464692.234 -346450.130 -7235041.574 10 0 59684 55800.00000 0 23387284.659 -267772.329 -10200786.307 10 0 59684 56700.00000 0 21977382.790 -21570.323 -12968568.039 10 0 59684 57600.00000 0 20280883.649 429120.091 -15484740.883 10 0 59684 58500.00000 0 18352217.618 1111580.039 -17700562.647 10 0 59684 59400.00000 0 16252156.711 2042019.901 -19573131.009 10 0 59684 60300.00000 0 14045378.459 3224662.571 -21066205.337 10 0 59684 61200.00000 0 11797886.752 4651336.352 -22150899.213 10 0 59684 62100.00000 0 9574396.414 6301594.953 -22806231.365 10 0 59684 63000.00000 0 7435789.352 8143360.336 -23019525.340 10 0 59684 63900.00000 0 5436746.932 10134062.434 -22786650.933 10 0 59684 64800.00000 0 3623655.620 12222229.474 -22112103.219 10 0 59684 65700.00000 0 2032871.598 14349464.040 -21008917.771 10 0 59684 66600.00000 0 689415.307 16452723.986 -19498423.441 10 0 59684 67500.00000 0 -393850.886 18466814.683 -17609836.913 10 0 59684 68400.00000 0 -1216528.528 20326990.073 -15379705.969 10 0 59684 69300.00000 0 -1790460.274 21971555.071 -12851211.233 10 0 59684 70200.00000 0 -2138988.267 23344361.404 -10073338.818 10 0 59684 71100.00000 0 -2295725.074 24397092.960 -7099938.853 10 0 59684 72000.00000 0 -2302889.010 25091244.890 -3988687.386 10 0 59684 72900.00000 0 -2209274.117 25399713.148 -799971.195 10 0 59684 73800.00000 0 -2067940.701 25307927.131 2404283.147 10 0 59684 74700.00000 0 -1933724.291 24814476.933 5561813.062 10 0 59684 75600.00000 0 -1860668.971 23931207.920 8611232.986 10 0 59684 76500.00000 0 -1899494.457 22682777.684 11493232.514 10 0 59684 77400.00000 0 -2095205.068 21105693.123 14151735.682 10 0 59684 78300.00000 0 -2484943.004 19246867.425 16534998.185 10 0 59684 79200.00000 0 -3096178.002 17161756.962 18596620.592 10 0 59684 80100.00000 0 -3945311.331 14912155.981 20296457.240 10 0 59684 81000.00000 0 -5036754.484 12563741.310 21601402.746 10 0 59684 81900.00000 0 -6362522.911 10183469.786 22486040.586 10 0 59684 82800.00000 0 -7902363.220 7836937.294 22933140.915 10 0 59684 83700.00000 0 -9624409.753 5585809.747 22933997.898 10 0 59684 84600.00000 0 -11486344.065 3485433.110 22488599.981 10 0 59684 85500.00000 0 -13437009.445 1582722.086 21605629.776 10 0 59685 0.00000 0 -15418413.271 -85584.802 20302293.726 10 0 59685 900.00000 0 -17368034.741 -1494232.445 18603984.109 10 0 59685 1800.00000 0 -19221338.747 -2630262.817 16543781.842 10 0 59685 2700.00000 0 -20914394.129 -3493305.333 14161807.550 10 0 59685 3600.00000 0 -22386483.750 -4095330.935 11504435.331 10 0 59685 4500.00000 0 -23582597.809 -4459882.851 8623384.245 10 0 59685 5400.00000 0 -24455705.445 -4620818.015 5574705.728 10 0 59685 6300.00000 0 -24968709.217 -4620613.998 2417687.123 10 0 59685 7200.00000 0 -25096000.443 -4508314.558 -786306.609 10 0 59685 8100.00000 0 -24824550.338 -4337202.137 -3975029.868 10 0 59685 9000.00000 0 -24154491.537 -4162296.999 -7086568.247 10 0 59685 9900.00000 0 -23099166.179 -4037789.724 -10060541.106 10 0 59685 10800.00000 0 -21684639.159 -4014516.299 -12839271.357 10 0 59685 11700.00000 0 -19948697.595 -4137582.922 -15368899.797 10 0 59685 12600.00000 0 -17939378.920 -4444240.868 -17600422.633 10 0 59685 13500.00000 0 -15713089.481 -4962101.072 -19490632.795 10 0 59685 14400.00000 0 -13332392.167 -5707763.483 -21002947.656 10 0 59685 15300.00000 0 -10863555.047 -6685918.774 -22108108.146 10 0 59685 16200.00000 0 -8373962.400 -7888960.227 -22784736.823 10 0 59685 17100.00000 0 -5929494.765 -9297122.459 -23019745.127 10 0 59685 18000.00000 0 -3591985.711 -10879141.767 -22808582.673 10 0 59685 18900.00000 0 -1416859.509 -12593411.475 -22155324.320 10 0 59685 19800.00000 0 548953.696 -14389585.205 -21072593.414 10 0 59685 20700.00000 0 2268739.909 -16210562.479 -19581322.487 10 0 59685 21600.00000 0 3717290.245 -17994775.166 -17710355.423 10 0 59685 22500.00000 0 4881704.244 -19678680.665 -15495897.932 10 0 59685 23400.00000 0 5761674.825 -21199358.736 -12980825.930 10 0 59685 24300.00000 0 6369243.629 -22497104.236 -10213864.132 10 0 59685 25200.00000 0 6728037.453 -23517907.689 -7248649.733 10 0 59685 26100.00000 0 6872018.045 -24215719.736 -4142698.516 10 0 59685 27000.00000 0 6843798.131 -24554404.132 -956292.885 10 0 59685 27900.00000 0 6692594.858 -24509296.578 2248686.942 10 0 59685 28800.00000 0 6471907.337 -24068302.847 5409965.734 10 0 59685 29700.00000 0 6237016.913 -23232488.979 8466086.415 10 0 59685 30600.00000 0 6042416.506 -22016137.429 11357609.544 10 0 59685 31500.00000 0 5939278.610 -20446265.722 14028275.028 10 0 59685 32400.00000 0 5973070.044 -18561626.762 16426102.884 10 0 59685 33300.00000 0 6181415.488 -16411231.858 18504411.010 10 0 59685 34200.00000 0 6592301.293 -14052457.787 20222729.549 10 0 59685 35100.00000 0 7222696.666 -11548816.694 21547593.712 10 0 59685 36000.00000 0 8077651.683 -8967481.753 22453199.364 10 0 59685 36900.00000 0 9149911.274 -6376671.886 22921908.404 10 0 59685 37800.00000 0 10420062.528 -3843004.525 22944594.105 10 0 59685 38700.00000 0 11857210.082 -1428926.664 22520819.622 10 0 59685 39600.00000 0 13420151.917 809668.857 21658846.235 10 0 59685 40500.00000 0 15059006.757 2825542.874 20375471.159 10 0 59685 41400.00000 0 16717225.089 4581838.315 18695698.093 10 0 59685 42300.00000 0 18333899.489 6053366.131 16652246.967 10 0 59685 43200.00000 0 19846277.194 7227396.202 14284912.529 10 0 59685 44100.00000 0 21192369.251 8103921.539 11639784.390 10 0 59685 45000.00000 0 22313546.253 8695386.254 8768344.086 10 0 59685 45900.00000 0 23157011.314 9025890.581 5726457.080 10 0 59685 46800.00000 0 23678046.014 9129908.238 2573279.892 10 0 59685 47700.00000 0 23841934.681 9050571.993 -629895.728 10 0 59685 48600.00000 0 23625486.066 8837601.517 -3820838.446 10 0 59685 49500.00000 0 23018088.574 8544962.508 -6937589.007 10 0 59685 50400.00000 0 22022254.962 8228357.196 -9919663.828 10 0 59685 51300.00000 0 20653634.023 7942653.150 -12709226.905 10 0 59685 52200.00000 0 18940489.137 7739359.519 -15252207.379 10 0 59685 53100.00000 0 16922665.887 7664257.425 -17499341.288 10 0 59685 54000.00000 0 14650092.084 7755284.406 -19407118.020 10 0 59685 54900.00000 0 12180872.726 8040761.780 -20938613.980 10 0 59685 55800.00000 0 9579059.005 8538039.216 -22064198.318 10 0 59685 56700.00000 0 6912183.520 9252613.252 -22762098.156 10 0 59685 57600.00000 0 4248663.104 10177756.724 -23018813.403 10 0 59685 58500.00000 0 1655175.968 11294674.850 -22829373.892 10 0 59685 59400.00000 0 -805879.482 12573181.976 -22197434.409 10 0 59685 60300.00000 0 -3078740.240 13972871.515 -21135205.936 10 0 59685 61200.00000 0 -5116352.354 15444731.202 -19663224.192 10 0 59685 62100.00000 0 -6882077.936 16933137.342 -17809959.411 10 0 59685 63000.00000 0 -8350965.739 18378145.883 -15611273.992 10 0 59685 63900.00000 0 -9510533.258 19717985.505 -13109737.550 10 0 59685 64800.00000 0 -10361028.499 20891649.232 -10353811.486 10 0 59685 65700.00000 0 -10915160.977 21841476.432 -7396917.843 10 0 59685 66600.00000 0 -11197313.493 22515617.004 -4296409.695 10 0 59685 67500.00000 0 -11242268.119 22870273.961 -1112462.421 10 0 59685 68400.00000 0 -11093500.187 22871629.482 2093092.910 10 0 59685 69300.00000 0 -10801112.483 22497372.388 5257971.297 10 0 59685 70200.00000 0 -10419497.219 21737761.558 8320647.093 10 0 59685 71100.00000 0 -10004825.110 20596179.137 11221554.732 10 0 59685 72000.00000 0 -9612468.349 19089148.877 13904252.855 10 0 59685 72900.00000 0 -9294467.285 17245817.513 16316528.547 10 0 59685 73800.00000 0 -9097148.812 15106919.683 18411419.600 10 0 59685 74700.00000 0 -9058998.119 12723268.867 20148134.301 10 0 59685 75600.00000 0 -9208874.687 10153836.685 21492850.503 10 0 59685 76500.00000 0 -9564648.842 7463500.273 22419378.156 10 0 59685 77400.00000 0 -10132317.255 4720551.442 22909672.198 10 0 59685 78300.00000 0 -10905635.521 1994071.217 22954185.825 10 0 59685 79200.00000 0 -11866283.985 -648721.073 22552057.209 10 0 59685 80100.00000 0 -12984560.396 -3145033.890 21711126.036 10 0 59685 81000.00000 0 -14220570.637 -5438878.235 20447779.584 10 0 59685 81900.00000 0 -15525867.689 -7483152.616 18786631.307 10 0 59685 82800.00000 0 -16845469.897 -9241351.893 16760038.257 10 0 59685 83700.00000 0 -18120173.518 -10688829.680 14407466.811 10 0 59685 84600.00000 0 -19289061.995 -11813562.731 11774719.185 10 0 59685 85500.00000 0 -20292105.908 -12616386.710 8913036.135 10 0 59686 0.00000 0 -21072743.664 -13110695.139 5878093.971 10 0 59686 900.00000 0 -21580334.198 -13321616.165 2728914.249 10 0 59686 1800.00000 0 -21772376.970 -13284703.044 -473287.834 10 0 59686 2700.00000 0 -21616406.933 -13044196.206 -3666298.776 10 0 59686 3600.00000 0 -21091483.453 -12650931.125 -6788117.937 10 0 59686 4500.00000 0 -20189211.007 -12159981.967 -9778162.088 10 0 59686 5400.00000 0 -18914248.806 -11628141.557 -12578439.398 10 0 59686 6300.00000 0 -17284288.097 -11111344.660 -15134670.175 10 0 59686 7200.00000 0 -15329498.266 -10662143.646 -17397332.770 10 0 59686 8100.00000 0 -13091464.930 -10327342.886 -19322615.096 10 0 59686 9000.00000 0 -10621664.205 -10145891.234 -20873254.153 10 0 59686 9900.00000 0 -7979536.368 -10147120.765 -22019248.298 10 0 59686 10800.00000 0 -5230238.384 -10349405.276 -22738429.599 10 0 59686 11700.00000 0 -2442167.649 -10759294.456 -23016886.190 10 0 59686 12600.00000 0 315641.429 -11371159.796 -22849227.282 10 0 59686 13500.00000 0 2976141.502 -12167367.157 -22238686.223 10 0 59686 14400.00000 0 5476809.745 -13118969.141 -21197059.797 10 0 59686 15300.00000 0 7761994.940 -14186888.941 -19744484.694 10 0 59686 16200.00000 0 9784978.200 -15323546.985 -17909054.952 10 0 59686 17100.00000 0 11509662.991 -16474863.279 -15726286.855 10 0 59686 18000.00000 0 12911825.067 -17582552.501 -13238440.672 10 0 59686 18900.00000 0 13979870.979 -18586616.451 -10493711.265 10 0 59686 19800.00000 0 14715074.058 -19427929.834 -7545302.154 10 0 59686 20700.00000 0 15131278.223 -20050810.934 -4450400.240 10 0 59686 21600.00000 0 15254082.341 -20405468.929 -1269070.415 10 0 59686 22500.00000 0 15119539.541 -20450224.265 1936908.801 10 0 59686 23400.00000 0 14772426.430 -20153407.642 5105245.872 10 0 59686 24300.00000 0 14264155.462 -19494856.397 8174349.555 10 0 59686 25200.00000 0 13650418.940 -18466943.790 11084530.811 10 0 59686 26100.00000 0 12988664.678 -17075096.302 13779169.253 10 0 59686 27000.00000 0 12335510.609 -15337775.645 16205820.817 10 0 59686 27900.00000 0 11744208.285 -13285924.673 18317244.488 10 0 59686 28800.00000 0 11262263.209 -10961899.187 20072327.498 10 0 59686 29700.00000 0 10929313.238 -8417929.218 21436890.640 10 0 59686 30600.00000 0 10775355.327 -5714173.182 22384357.755 10 0 59686 31500.00000 0 10819396.078 -2916445.602 22896276.162 10 0 59686 32400.00000 0 11068583.515 -93712.573 22962677.898 10 0 59686 33300.00000 0 11517857.117 2684540.999 22582274.682 10 0 59686 34200.00000 0 12150131.123 5350963.000 21762482.823 10 0 59686 35100.00000 0 12937003.561 7842894.468 20519277.614 10 0 59686 36000.00000 0 13839961.118 10104732.469 18876880.025 10 0 59686 36900.00000 0 14812028.987 12089997.495 16867281.843 10 0 59686 37800.00000 0 15799795.859 13763019.858 14529618.593 10 0 59686 38700.00000 0 16745728.348 15100175.641 11909402.552 10 0 59686 39600.00000 0 17590676.721 16090621.644 9057631.133 10 0 59686 40500.00000 0 18276465.735 16736499.979 6029788.365 10 0 59686 41400.00000 0 18748460.676 17052605.399 2884759.401 10 0 59686 42300.00000 0 18957999.853 17065531.023 -316320.115 10 0 59686 43200.00000 0 18864590.475 16812330.230 -3511256.844 10 0 59686 44100.00000 0 18437775.022 16338752.779 -6638010.923 10 0 59686 45000.00000 0 17658589.277 15697131.003 -9635901.392 10 0 59686 45900.00000 0 16520550.571 14944006.424 -12446782.264 10 0 59686 46800.00000 0 15030134.661 14137597.752 -15016166.386 10 0 59686 47700.00000 0 13206721.223 13335217.394 -17294275.538 10 0 59686 48600.00000 0 11082010.134 12590745.383 -19236997.037 10 0 59686 49500.00000 0 8698932.630 11952266.735 -20806729.176 10 0 59686 50400.00000 0 6110102.355 11459970.966 -21973100.083 10 0 59686 51300.00000 0 3375870.014 11144401.339 -22713547.212 10 0 59686 52200.00000 0 562061.468 11025126.494 -23013747.254 10 0 59686 53100.00000 0 -2262507.996 11109889.585 -22867888.976 10 0 59686 54000.00000 0 -5028641.596 11394270.136 -22278784.260 10 0 59686 54900.00000 0 -7669384.629 11861872.649 -21257815.397 10 0 59686 55800.00000 0 -10122556.364 12485034.265 -19824719.444 10 0 59686 56700.00000 0 -12333086.720 13226022.268 -18007213.284 10 0 59686 57600.00000 0 -14255061.980 14038671.944 -15840465.798 10 0 59686 58500.00000 0 -15853395.444 14870396.820 -13366426.317 10 0 59686 59400.00000 0 -17105054.198 15664487.669 -10633021.304 10 0 59686 60300.00000 0 -17999791.359 16362604.198 -7693233.704 10 0 59686 61200.00000 0 -18540353.345 16907354.949 -4604082.031 10 0 59686 62100.00000 0 -18742153.687 17244856.701 -1425518.350 10 0 59686 63000.00000 0 -18632427.093 17327165.103 1780733.796 10 0 59686 63900.00000 0 -18248899.365 17114473.251 4952378.850 10 0 59686 64800.00000 0 -17638029.321 16576984.311 8027762.545 10 0 59686 65700.00000 0 -16852897.035 15696377.796 10947074.981 10 0 59686 66600.00000 0 -15950827.826 14466806.102 13653519.375 10 0 59686 67500.00000 0 -14990852.756 12895377.639 16094423.102 10 0 59686 68400.00000 0 -14031113.340 11002104.512 18222268.834 10 0 59686 69300.00000 0 -13126320.615 8819315.430 19995625.072 10 0 59686 70200.00000 0 -12325376.326 6390556.981 21379957.636 10 0 59686 71100.00000 0 -11669257.065 3769028.033 22348306.034 10 0 59686 72000.00000 0 -11189250.999 1015611.776 22881811.384 10 0 59686 72900.00000 0 -10905621.759 -1803413.275 22970085.551 10 0 59686 73800.00000 0 -10826755.959 -4618888.474 22611414.331 10 0 59686 74700.00000 0 -10948830.231 -7361411.991 21812790.684 10 0 59686 75600.00000 0 -11256011.694 -9963988.075 20589777.435 10 0 59686 76500.00000 0 -11721183.120 -12364578.647 18966202.068 10 0 59686 77400.00000 0 -12307161.839 -14508451.168 16973689.609 10 0 59686 78300.00000 0 -12968360.459 -16350225.447 14651042.770 10 0 59686 79200.00000 0 -13652818.758 -17855534.607 12043481.530 10 0 59686 80100.00000 0 -14304520.265 -19002231.609 9201757.269 10 0 59686 81000.00000 0 -14865894.995 -19781092.008 6181159.076 10 0 59686 81900.00000 0 -15280401.915 -20195984.820 3040432.050 10 0 59686 82800.00000 0 -15495081.319 -20263505.815 -159370.668 10 0 59686 83700.00000 0 -15462968.746 -20012090.329 -3356079.168 10 0 59686 84600.00000 0 -15145267.975 -19480644.521 -6487617.634 10 0 59686 85500.00000 0 -14513191.112 -18716754.256 -9493210.628 99